DW5918 Weather Reports


time (UTC)temp
C
wind
direction
speed
KPH
gust
KPH
rain 1hr
cm
rain 24hr
cm
rain mn
cm
humidity
%
barometer
mb
20260504130104 11 247 0.0 16.1 0.00 0.00 0.00 51 1012.1
20260504120128 9 243 1.6 11.3 0.00 0.00 0.00 56 1012.5
20260504090125 4 262 0.0 3.2 0.00 0.00 0.00 68 1011.7
20260504081543 5 262 0.0 1.6 0.00 0.00 0.00 69 1011.8
20260504050110 3 286 0.0 0.0 0.00 0.00 0.00 70 1012.0
20260504044535 3 286 0.0 0.0 0.00 0.00 0.00 68 1012.3
20260504043123 3 286 0.0 0.0 0.00 0.00 0.00 70 1012.3
20260504040004 3 285 0.0 0.0 0.00 0.00 0.00 69 1012.1
20260504034634 4 286 0.0 0.0 0.00 0.00 0.00 68 1012.1
20260504033019 4 286 0.0 0.0 0.00 0.00 0.00 69 1012.1
20260504031610 5 286 0.0 0.0 0.00 0.00 0.00 68 1011.9
20260504030027 5 285 0.0 0.0 0.00 0.00 0.00 63 1011.8
20260504024619 5 285 0.0 1.6 0.00 0.00 0.00 64 1011.9
20260504023031 5 285 0.0 0.0 0.00 0.00 0.00 54 1012.0
20260504021631 5 285 0.0 0.0 0.00 0.00 0.00 53 1012.0
20260504020043 5 286 0.0 0.0 0.00 0.00 0.00 54 1011.9
20260504014630 6 285 0.0 1.6 0.00 0.00 0.00 53 1011.7
20260504013055 6 285 0.0 0.0 0.00 0.00 0.00 51 1011.5
20260504011517 6 285 0.0 1.6 0.00 0.00 0.00 49 1011.4
20260504004527 7 325 0.0 3.2 0.00 0.00 0.00 45 1011.0
20260504003124 7 325 0.0 6.4 0.00 0.00 0.00 44 1010.9
20260504001559 7 303 0.0 8.0 0.00 0.00 0.00 42 1010.6
20260504000132 7 307 0.0 3.2 0.00 0.00 0.00 40 1010.4
20260503234555 8 244 0.0 8.0 0.00 0.00 0.00 39 1010.3
20260503233018 8 277 1.6 9.7 0.00 0.00 0.00 37 1010.1
20260503231609 8 298 3.2 11.3 0.00 0.00 0.00 37 1010.0
20260503230022 9 297 3.2 11.3 0.00 0.00 0.00 36 1010.0
20260503224622 9 312 1.6 9.7 0.00 0.00 0.00 36 1009.9
20260503223039 9 270 4.8 17.7 0.00 0.00 0.00 37 1009.8
20260503221626 10 327 1.6 16.1 0.00 0.00 0.00 38 1009.7
20260503220033 9 328 6.4 19.3 0.00 0.00 0.00 37 1009.7
20260503214631 9 325 4.8 12.9 0.00 0.00 0.00 39 1009.8
20260503213051 9 234 6.4 32.2 0.00 0.00 0.00 37 1009.6
20260503211513 10 259 4.8 22.5 0.00 0.00 0.00 38 1009.7
20260503210106 10 317 9.7 29.0 0.00 0.00 0.00 38 1009.7
20260503204700 10 273 4.8 24.1 0.00 0.00 0.00 40 1009.7
20260503203128 8 293 1.6 22.5 0.00 0.00 0.00 42 1009.7
20260503201553 9 269 9.7 20.9 0.00 0.00 0.00 41 1009.7
20260503200003 8 290 4.8 19.3 0.00 0.00 0.00 42 1009.8
20260503194601 8 267 6.4 19.3 0.00 0.00 0.00 40 1009.8
20260503193019 8 348 1.6 20.9 0.00 0.00 0.00 43 1009.7
20260503191617 7 12 9.7 24.1 0.00 0.00 0.00 44 1009.9
20260503190043 7 275 4.8 20.9 0.00 0.00 0.00 45 1009.9
20260503184623 7 318 8.0 25.7 0.00 0.00 0.00 44 1009.9
20260503183054 7 293 8.0 30.6 0.00 0.00 0.00 43 1009.8
20260503181501 7 284 3.2 20.9 0.00 0.00 0.00 43 1009.8
20260503180059 8 304 4.8 30.6 0.00 0.00 0.00 43 1009.7
20260503174517 8 283 6.4 19.3 0.00 0.00 0.00 43 1009.7
20260503171534 7 347 6.4 16.1 0.00 0.00 0.00 44 1009.7
20260503170116 6 17 6.4 29.0 0.00 0.00 0.00 49 1009.8
20260503160127 6 302 8.0 19.3 0.00 0.00 0.00 53 1010.0